Terug naar catalogus

PE2_FLT1

TYVAK-0261

ActiefWetenschapSSO
NORAD 59105·PAYLOAD·🇺🇸 United States

Gelanceerd Mar 4, 2024 vanaf Vandenberg Space Force Base

Loading…

Volgende Passages (komende 24 uur)

TLE

VersSource: Space-Track

Epoch: Sep 14, 2026, 14:21 UTC

1 59105U 24043H   26257.59834955  .00001826  00000-0  16150-3 0  9996
2 59105  97.8507  28.5602 0007605  97.4115 262.7971 14.97565086138036

Volg PE2_FLT1 in realtime met AllMySat

Download on the App Store